Weather History for Monroe, LA

Change the Weather History Date:

Monday, March 24, 2014

  Actual Average Record
Temperature  
Mean Temperature 49 °F 60 °F  
Max Temperature 62 °F 72 °F 88 °F (1936)
Min Temperature 36 °F 48 °F 30 °F (1968)
Degree Days  
Heating Degree Days 16 6  
Month to date heating degree days 319 212  
Since 1 July heating degree days 2645 2106  
Cooling Degree Days 0 1  
Month to date cooling degree days 1 22  
Year to date cooling degree days 3 33  
Moisture  
Dew Point 34 °F    
Average Humidity 59    
Maximum Humidity 82    
Minimum Humidity 36    
Precipitation  
Precipitation 0.00 in 0.14 in 1.90 in (1973)
Month to date precipitation 2.09 3.70  
Year to date precipitation 6.52 13.34  
Snow  
Snow 0.00 in - - ()
Month to date snowfall 0.0  
Since 1 July snowfall 0.5  
Snow Depth 0.00 in    
Sea Level Pressure  
Sea Level Pressure 30.17 in    
Wind  
Wind Speed 6 mph (NE)    
Max Wind Speed 13 mph    
Max Gust Speed 18 mph    
Visibility 10 miles    
Events      
T = Trace of Precipitation, MM = Missing Value Source: NWS Daily Summary

Daily Weather History Graph

Daily Weather History Graph

Search for Another Location

Airport:

Trip Planner

Search our weather history database for the weather conditions in past years. The results will help you decide how hot, cold, wet, or windy it might be!

Date:

Astronomy

Mar. 24, 2014 Rise Set
Actual Time 7:06 AM CDT 7:22 PM CDT
Civil Twilight 6:42 AM CDT 7:47 PM CDT
Nautical Twilight 6:13 AM CDT 8:15 PM CDT
Astronomical Twilight 5:44 AM CDT 8:45 PM CDT
Moon 2:18 AM CDT (3/24) 1:06 PM CDT (3/24)
Length of Visible Light 13h 05m
Length of Day
12h 15m
Last Quarter, 43% of the Moon is Illuminated
Mar 24
Last Quarter
Mar 30
New
Apr 7
First Quarter
Apr 15
Full
Apr 22
Last Quarter

Hourly Weather History & Observations

Time (CDT) Temp. Windchill Dew Point Humidity Pressure Visibility Wind Dir Wind Speed Gust Speed Precip Events Conditions
12:53 AM 43.0 °F 40.3 °F 33.1 °F 68% 30.26 in 10.0 mi North 4.6 mph - N/A   Clear
1:53 AM 41.0 °F 37.1 °F 33.1 °F 73% 30.26 in 10.0 mi NNE 5.8 mph - N/A   Clear
2:53 AM 39.9 °F 35.1 °F 33.1 °F 77% 30.25 in 10.0 mi NNE 6.9 mph - N/A   Clear
3:53 AM 39.0 °F 34.0 °F 33.1 °F 79% 30.23 in 10.0 mi NNE 6.9 mph - N/A   Clear
4:53 AM 37.0 °F 32.4 °F 32.0 °F 82% 30.22 in 10.0 mi NNE 5.8 mph - N/A   Clear
5:53 AM 37.9 °F 32.7 °F 30.9 °F 76% 30.22 in 10.0 mi NE 6.9 mph - N/A   Clear
6:53 AM 39.0 °F 32.3 °F 32.0 °F 76% 30.22 in 10.0 mi NE 10.4 mph - N/A   Clear
7:53 AM 41.0 °F 35.2 °F 33.1 °F 73% 30.24 in 10.0 mi ENE 9.2 mph - N/A   Clear
8:53 AM 45.0 °F 39.7 °F 33.1 °F 63% 30.24 in 10.0 mi ENE 10.4 mph - N/A   Clear
9:53 AM 48.9 °F - 33.1 °F 54% 30.23 in 10.0 mi East 8.1 mph - N/A   Clear
10:53 AM 52.0 °F - 34.0 °F 50% 30.23 in 10.0 mi NE 8.1 mph - N/A   Clear
11:53 AM 55.9 °F - 35.1 °F 45% 30.21 in 10.0 mi NE 8.1 mph - N/A   Clear
12:53 PM 57.9 °F - 34.0 °F 41% 30.17 in 10.0 mi East 5.8 mph - N/A   Clear
1:53 PM 60.1 °F - 34.0 °F 38% 30.13 in 10.0 mi NNE 9.2 mph - N/A   Clear
2:53 PM 60.1 °F - 34.0 °F 38% 30.10 in 10.0 mi ENE 9.2 mph - N/A   Clear
3:53 PM 60.1 °F - 33.1 °F 36% 30.06 in 10.0 mi ENE 4.6 mph - N/A   Clear
4:53 PM 61.0 °F - 33.1 °F 35% 30.04 in 10.0 mi NNE 5.8 mph - N/A   Clear
5:53 PM 61.0 °F - 34.0 °F 36% 30.04 in 10.0 mi Calm Calm - N/A   Clear
6:53 PM 57.0 °F - 37.0 °F 47% 30.06 in 10.0 mi NE 6.9 mph - N/A   Clear
7:53 PM 53.1 °F - 37.0 °F 55% 30.08 in 10.0 mi ENE 3.5 mph - N/A   Clear
8:53 PM 51.1 °F - 37.0 °F 59% 30.10 in 10.0 mi NE 3.5 mph - N/A   Clear
9:53 PM 50.0 °F - 36.0 °F 59% 30.12 in 10.0 mi NE 4.6 mph - N/A   Clear
10:53 PM 48.0 °F - 34.0 °F 58% 30.13 in 10.0 mi NNE 8.1 mph - N/A   Clear
11:53 PM 45.0 °F 41.8 °F 32.0 °F 60% 30.15 in 10.0 mi NNE 5.8 mph - N/A   Clear